Location: Bodest
(46.3000°N, 22.5667°E)
Time: 01:15:24
(UTC+00:00)

FENGYUN 1C DEB - Pass Details

Date: 07 April 2023
Orbit: 806 x 916 km, 98.8° (Epoch: 29 May)

Event Time Altitude Azimuth Distance (km) Brightness Sun altitude
Rises 19:17:26 0° 208° (SSW) 3,534 ? -21.5°
Reaches altitude 10° 19:20:36 10° 226° (SW) 2,588 ? -21.9°
Maximum altitude 19:24:35 19° 270° (W) 2,008 ? -22.4°
Drops below altitude 10° 19:28:33 10° 314° (NW) 2,563 ? -23.0°
Sets 19:31:42 0° 332° (NNW) 3,487 ? -23.4°
